User: anonymous   Login
Location: Beuerbach
(48.1459°N, 10.9174°E)
Time: 00:16:58
(UTC+00:00)
Language:

IRAS Rocket - Orbit

View from above orbital plane
View from above orbital plane
View from above satellite
View from above satellite

Ground track
Ground track

The orbit data is extracted from the following two-line orbital elements,

1 13778U 83004B   24194.47759994  .00000150  00000-0  11673-3 0  9992
2 13778 100.0578 152.3446 0021467  31.7454 328.5001 14.09375934130444
Epoch (UTC): 12 July 2024 11:27:44
Eccentricity: 0.0021467
inclination: 100.0578°
perigee height: 846 km
apogee height: 877 km
right ascension of ascending node: 152.3446°
argument of perigee: 31.7454°
revolutions per day: 14.09375934
mean anomaly at epoch: 328.5001°
orbit number at epoch: 13044

The dashed part of the orbit path shows where the satellite is in the earth's shadow,  

DLR